Погода в Красном Холме

Россия / Рязанская область     54°11′19″N   40°42′07″E
темп.,
°C
ветер,
м/с
пор.,
м/с
влажн.,
%
обл.,
%
осадки,
мм/ч
давл.,
гПа
погр.,
м
7 мая, пт
пт700:00+10зюз4991100 0.6 1010435
03:00+8сз3695100 1.9 1010360
06:00+7сз4795100 5.4 1010811
09:00+8юв1186100 9.4 1012348
12:00+12зсз466394 0.3 10131409
15:00+14зсз56445 0.3 10132302
18:00+13з34585 0.0 1014223
21:00+8ююз22649 0.0 101616
8 мая, сб
сб800:00+7ююв346469 0.0 101643
03:00+6ююв497099 0.0 1015152
06:00+7ююв51380100 0.0 1014329
09:00+10ююв71373100 0.0 1013744
12:00+14ююв10145899 0.0 10101152
15:00+13ююв91570100 0.3 10071077
18:00+12ю91689100 2.3 1006911
21:00+12ю6139398 2.4 1006697
9 мая, вс
вс900:00+10юз61192100 1.4 1005582
03:00+8юз71189100 1.6 1007700
06:00+5юз71293100 0.1 1009695
09:00+5зсз71192100 0.1 1012981
12:00+7зсз7984100 0.1 10151051
15:00+8ссз6877100 0.3 10171117
18:00+8ссз587899 0.3 1019961
21:00+5ссз348799 0.3 102266
10 мая, пн
пн1000:00+4ссз4887100 0.0 1023136
03:00+3с4991100 0.0 1025188
06:00+4с4118810 0.0 1027343
09:00+10ссв610665 0.0 1028930
12:00+13ссв795111 0.0 10281393
15:00+14ссв7948100 0.0 10271412
18:00+13св596031 0.0 1028527
21:00+8св410695 0.0 1029156
11 мая, вт
вт1100:00+6ссв49740 0.0 1029139
03:00+4св48763 0.0 1029148
06:00+6св310795 0.0 1030230
09:00+12св610615 0.0 1030809
12:00+16св79514 0.0 10291214
15:00+17всв68495 0.0 10281395
18:00+15всв486449 0.0 1028391
21:00+10всв47799 0.0 102999